Location: Unspecified
(0.0000°N, 0.0000°E)
Time: 04:39:58
(UTC+02:00)

Cosmos 1953 Rocket - Visible Passes

Search period start: 23 June 2018 00:00
Search period end: 03 July 2018 00:00
Orbit: 605 x 635 km, 82.5° (Epoch: 22 June)

Date Brightness Start Highest point End Pass type
(mag) Time Alt. Az. Time Alt. Az. Time Alt. Az.
23 Jun 5.9 22:10:44 14° N 22:10:44 14° N 22:11:25 10° N visible
24 Jun 5.7 22:27:04 21° NNW 22:27:04 21° NNW 22:28:42 10° NNW visible
25 Jun 5.5 21:06:09 13° ENE 21:06:09 13° ENE 21:07:06 10° ENE visible
25 Jun 6.2 22:43:14 17° WNW 22:43:14 17° WNW 22:45:09 10° NW visible
26 Jun 4.1 21:22:08 35° E 21:22:08 35° E 21:25:59 10° NNE visible
27 Jun 3.4 21:37:50 37° S 21:39:32 86° E 21:43:52 10° N visible
28 Jun 4.8 21:53:07 11° SSW 21:57:02 38° W 22:01:04 10° NNW visible
29 Jun 5.0 20:34:06 10° SE 20:36:57 17° E 20:39:48 10° NE visible
29 Jun 6.2 22:11:42 10° SW 22:14:32 17° W 22:17:22 10° NW visible
30 Jun 4.0 20:50:24 10° SSE 20:54:27 39° E 20:58:30 10° NNE visible
01 Jul 3.5 21:07:37 10° S 21:11:57 85° W 21:16:18 10° N visible
02 Jul 5.2 21:25:30 10° SSW 21:29:28 35° W 21:33:26 10° NNW visible
